Time,TemperatureF,DewpointF,PressureIn,WindDirection,WindDirectionDegrees,WindSpeedMPH,WindSpeedGustMPH,Humidity,HourlyPrecipIn,Conditions,Clouds,dailyrainin,SoftwareType,DateUTC
2013-02-11 00:10:00,25.8,24.0,29.92,WSW,247,0.0,-999.0,91,-99.99,,,0.00,weatherlink.com 1.10,2013-02-11 07:10:00,
2013-02-11 00:25:00,25.7,24.0,29.92,WSW,248,0.0,-999.0,91,-99.99,,,0.00,weatherlink.com 1.10,2013-02-11 07:25:00,
2013-02-11 00:40:00,25.1,23.0,29.93,WSW,248,0.0,-999.0,91,-99.99,,,0.00,weatherlink.com 1.10,2013-02-11 07:40:00,
2013-02-11 00:55:00,25.0,23.0,29.93,WSW,248,0.0,-999.0,91,-99.99,,,0.00,weatherlink.com 1.10,2013-02-11 07:55:00,
2013-02-11 01:10:00,25.4,23.0,29.93,WSW,248,0.0,-999.0,91,-99.99,,,0.00,weatherlink.com 1.10,2013-02-11 08:10:00,
2013-02-11 01:25:00,24.4,22.0,29.91,WSW,248,1.0,-999.0,90,-99.99,,,0.00,weatherlink.com 1.10,2013-02-11 08:25:00,
2013-02-11 01:40:00,23.6,21.0,29.93,WSW,248,0.0,-999.0,90,-99.99,,,0.00,weatherlink.com 1.10,2013-02-11 08:40:00,
2013-02-11 01:55:00,24.2,22.0,29.92,WSW,248,0.0,-999.0,91,-99.99,,,0.00,weatherlink.com 1.10,2013-02-11 08:55:00,
2013-02-11 02:10:00,24.2,22.0,29.91,WSW,247,0.0,-999.0,90,-99.99,,,0.00,weatherlink.com 1.10,2013-02-11 09:10:00,
2013-02-11 02:25:00,24.1,22.0,29.91,WSW,248,0.0,-999.0,90,-99.99,,,0.00,weatherlink.com 1.10,2013-02-11 09:25:00,
2013-02-11 02:40:00,23.3,21.0,29.92,WSW,248,0.0,-999.0,89,-99.99,,,0.00,weatherlink.com 1.10,2013-02-11 09:40:00,
2013-02-11 02:55:00,21.8,19.0,29.93,WSW,248,1.0,-999.0,89,-99.99,,,0.00,weatherlink.com 1.10,2013-02-11 09:55:00,
2013-02-11 03:10:00,22.4,20.0,29.93,WSW,247,0.0,-999.0,90,-99.99,,,0.00,weatherlink.com 1.10,2013-02-11 10:10:00,
2013-02-11 03:25:00,21.6,19.0,29.94,WSW,248,0.0,-999.0,89,-99.99,,,0.00,weatherlink.com 1.10,2013-02-11 10:25:00,
2013-02-11 03:40:00,21.6,19.0,29.94,WSW,248,1.0,-999.0,90,-99.99,,,0.00,weatherlink.com 1.10,2013-02-11 10:40:00,
2013-02-11 03:55:00,21.1,18.0,29.94,WSW,248,0.0,-999.0,89,-99.99,,,0.00,weatherlink.com 1.10,2013-02-11 10:55:00,
2013-02-11 04:10:00,20.6,18.0,29.95,WSW,248,0.0,-999.0,89,-99.99,,,0.00,weatherlink.com 1.10,2013-02-11 11:10:00,
2013-02-11 04:25:00,21.0,19.0,29.96,WSW,248,0.0,-999.0,90,-99.99,,,0.00,weatherlink.com 1.10,2013-02-11 11:25:00,
2013-02-11 04:41:00,21.0,19.0,29.96,WSW,248,0.0,-999.0,90,-99.99,,,0.00,weatherlink.com 1.10,2013-02-11 11:41:00,
2013-02-11 04:55:00,21.0,19.0,29.96,WSW,247,1.0,-999.0,90,-99.99,,,0.00,weatherlink.com 1.10,2013-02-11 11:55:00,
2013-02-11 05:10:00,21.8,19.0,29.97,WSW,248,2.0,-999.0,90,-99.99,,,0.00,weatherlink.com 1.10,2013-02-11 12:10:00,
2013-02-11 05:25:00,22.9,20.0,29.96,WSW,248,0.0,-999.0,90,-99.99,,,0.00,weatherlink.com 1.10,2013-02-11 12:25:00,
2013-02-11 05:40:00,22.7,20.0,29.96,WSW,248,0.0,-999.0,89,-99.99,,,0.00,weatherlink.com 1.10,2013-02-11 12:40:00,
2013-02-11 05:56:00,22.5,20.0,29.96,WSW,248,0.0,-999.0,89,-99.99,,,0.00,weatherlink.com 1.10,2013-02-11 12:56:00,
2013-02-11 06:10:00,22.1,19.0,29.96,WSW,247,1.0,-999.0,88,-99.99,,,0.00,weatherlink.com 1.10,2013-02-11 13:10:00,
2013-02-11 06:25:00,21.6,19.0,29.99,WSW,248,0.0,-999.0,88,-99.99,,,0.00,weatherlink.com 1.10,2013-02-11 13:25:00,
2013-02-11 06:40:00,20.8,18.0,29.99,WSW,248,0.0,-999.0,88,-99.99,,,0.00,weatherlink.com 1.10,2013-02-11 13:40:00,
2013-02-11 06:56:00,18.8,15.0,29.99,WSW,248,0.0,-999.0,86,-99.99,,,0.00,weatherlink.com 1.10,2013-02-11 13:56:00,
2013-02-11 07:11:00,16.4,13.0,30.02,WSW,247,0.0,-999.0,86,-99.99,,,0.00,weatherlink.com 1.10,2013-02-11 14:11:00,
2013-02-11 07:26:00,14.1,11.0,30.05,WSW,248,2.0,-999.0,87,-99.99,,,0.00,weatherlink.com 1.10,2013-02-11 14:26:00,
2013-02-11 07:41:00,13.3,10.0,30.06,WSW,248,2.0,-999.0,88,-99.99,,,0.00,weatherlink.com 1.10,2013-02-11 14:41:00,
2013-02-11 07:56:00,15.1,12.0,30.07,WSW,248,1.0,-999.0,88,-99.99,,,0.00,weatherlink.com 1.10,2013-02-11 14:56:00,
2013-02-11 08:11:00,17.0,14.0,30.06,WSW,247,0.0,-999.0,89,-99.99,,,0.00,weatherlink.com 1.10,2013-02-11 15:11:00,
2013-02-11 08:26:00,19.7,17.0,30.08,WSW,248,0.0,-999.0,89,-99.99,,,0.00,weatherlink.com 1.10,2013-02-11 15:26:00,
2013-02-11 08:41:00,20.8,18.0,30.07,WSW,248,0.0,-999.0,88,-99.99,,,0.00,weatherlink.com 1.10,2013-02-11 15:41:00,
2013-02-11 08:56:00,21.8,19.0,30.08,WSW,248,0.0,-999.0,88,-99.99,,,0.00,weatherlink.com 1.10,2013-02-11 15:56:00,
2013-02-11 09:11:00,24.2,21.0,30.07,WSW,247,0.0,-999.0,88,-99.99,,,0.00,weatherlink.com 1.10,2013-02-11 16:11:00,
2013-02-11 09:26:00,27.2,24.0,30.03,WSW,248,1.0,-999.0,86,-99.99,,,0.01,weatherlink.com 1.10,2013-02-11 16:26:00,
2013-02-11 09:41:00,26.9,23.0,30.02,WSW,248,0.0,-999.0,84,-99.99,,,0.01,weatherlink.com 1.10,2013-02-11 16:41:00,
2013-02-11 09:59:00,26.7,22.0,30.02,WSW,248,0.0,-999.0,82,-99.99,,,0.01,weatherlink.com 1.10,2013-02-11 16:59:00,
2013-02-11 10:11:00,28.2,23.0,30.02,WSW,247,0.0,-999.0,80,-99.99,,,0.01,weatherlink.com 1.10,2013-02-11 17:11:00,
2013-02-11 10:26:00,29.4,23.0,30.02,WSW,247,0.0,-999.0,77,-99.99,,,0.01,weatherlink.com 1.10,2013-02-11 17:26:00,
2013-02-11 10:41:00,30.1,23.0,30.00,WSW,248,0.0,-999.0,76,-99.99,,,0.01,weatherlink.com 1.10,2013-02-11 17:41:00,
2013-02-11 10:56:00,29.3,22.0,30.01,WSW,248,0.0,-999.0,73,-99.99,,,0.01,weatherlink.com 1.10,2013-02-11 17:56:00,
2013-02-11 11:11:00,28.7,21.0,30.02,WSW,248,0.0,-999.0,74,-99.99,,,0.01,weatherlink.com 1.10,2013-02-11 18:11:00,
2013-02-11 11:27:00,30.0,22.0,30.02,WSW,248,0.0,-999.0,71,-99.99,,,0.01,weatherlink.com 1.10,2013-02-11 18:27:00,
2013-02-11 11:42:00,32.1,21.0,30.00,WSW,248,0.0,-999.0,64,-99.99,,,0.02,weatherlink.com 1.10,2013-02-11 18:42:00,
2013-02-11 11:56:00,32.9,19.0,29.98,WSW,248,0.0,-999.0,57,-99.99,,,0.02,weatherlink.com 1.10,2013-02-11 18:56:00,
2013-02-11 12:12:00,31.8,18.0,29.98,WSW,248,1.0,-999.0,56,-99.99,,,0.02,weatherlink.com 1.10,2013-02-11 19:12:00,
2013-02-11 12:26:00,31.5,19.0,29.99,WSW,248,0.0,-999.0,60,-99.99,,,0.02,weatherlink.com 1.10,2013-02-11 19:26:00,
2013-02-11 12:42:00,30.7,20.0,29.98,WSW,248,4.0,-999.0,64,-99.99,,,0.02,weatherlink.com 1.10,2013-02-11 19:42:00,
2013-02-11 12:56:00,31.0,19.0,29.98,WSW,247,5.0,-999.0,62,-99.99,,,0.02,weatherlink.com 1.10,2013-02-11 19:56:00,
2013-02-11 13:11:00,31.6,19.0,29.98,WSW,248,6.0,-999.0,60,-99.99,,,0.02,weatherlink.com 1.10,2013-02-11 20:11:00,
2013-02-11 13:26:00,32.1,17.0,29.97,WSW,247,7.0,-999.0,55,-99.99,,,0.02,weatherlink.com 1.10,2013-02-11 20:26:00,
2013-02-11 13:42:00,31.6,16.0,29.97,WSW,247,4.0,-999.0,53,-99.99,,,0.02,weatherlink.com 1.10,2013-02-11 20:42:00,
2013-02-11 13:56:00,32.2,15.0,29.97,WSW,247,7.0,-999.0,49,-99.99,,,0.02,weatherlink.com 1.10,2013-02-11 20:56:00,
2013-02-11 14:11:00,32.5,15.0,29.95,WSW,247,5.0,-999.0,49,-99.99,,,0.02,weatherlink.com 1.10,2013-02-11 21:11:00,
2013-02-11 14:26:00,32.8,15.0,29.97,WSW,248,2.0,-999.0,49,-99.99,,,0.02,weatherlink.com 1.10,2013-02-11 21:26:00,
2013-02-11 14:42:00,33.5,17.0,29.98,WSW,248,2.0,-999.0,51,-99.99,,,0.02,weatherlink.com 1.10,2013-02-11 21:42:00,
2013-02-11 14:56:00,34.0,17.0,29.96,WSW,249,6.0,-999.0,51,-99.99,,,0.02,weatherlink.com 1.10,2013-02-11 21:56:00,
2013-02-11 15:11:00,34.0,17.0,29.96,WSW,250,6.0,-999.0,50,-99.99,,,0.02,weatherlink.com 1.10,2013-02-11 22:11:00,
2013-02-11 15:27:00,33.7,15.0,29.97,WSW,251,4.0,-999.0,47,-99.99,,,0.02,weatherlink.com 1.10,2013-02-11 22:27:00,
2013-02-11 15:42:00,33.8,16.0,29.97,WSW,252,1.0,-999.0,48,-99.99,,,0.02,weatherlink.com 1.10,2013-02-11 22:42:00,
2013-02-11 15:57:00,34.1,15.0,29.98,WSW,252,4.0,-999.0,46,-99.99,,,0.02,weatherlink.com 1.10,2013-02-11 22:57:00,
2013-02-11 16:12:00,34.0,15.0,29.98,WSW,252,8.0,-999.0,46,-99.99,,,0.02,weatherlink.com 1.10,2013-02-11 23:12:00,
2013-02-11 16:27:00,33.5,14.0,29.98,WSW,253,4.0,-999.0,44,-99.99,,,0.02,weatherlink.com 1.10,2013-02-11 23:27:00,
2013-02-11 16:42:00,33.8,15.0,29.99,WSW,253,1.0,-999.0,46,-99.99,,,0.02,weatherlink.com 1.10,2013-02-11 23:42:00,
2013-02-11 16:57:00,33.2,15.0,29.99,WSW,255,5.0,-999.0,48,-99.99,,,0.02,weatherlink.com 1.10,2013-02-11 23:57:00,
2013-02-11 17:12:00,32.4,14.0,29.99,WSW,257,3.0,-999.0,47,-99.99,,,0.02,weatherlink.com 1.10,2013-02-12 00:12:00,
2013-02-11 17:27:00,31.3,14.0,30.00,WSW,257,4.0,-999.0,50,-99.99,,,0.02,weatherlink.com 1.10,2013-02-12 00:27:00,
2013-02-11 17:42:00,30.1,15.0,30.02,WSW,257,4.0,-999.0,54,-99.99,,,0.02,weatherlink.com 1.10,2013-02-12 00:42:00,
2013-02-11 17:57:00,29.4,15.0,30.02,WSW,257,4.0,-999.0,56,-99.99,,,0.02,weatherlink.com 1.10,2013-02-12 00:57:00,
2013-02-11 18:12:00,28.4,16.0,30.03,WSW,257,3.0,-999.0,59,-99.99,,,0.02,weatherlink.com 1.10,2013-02-12 01:12:00,
2013-02-11 18:28:00,27.6,16.0,30.06,WSW,257,2.0,-999.0,61,-99.99,,,0.02,weatherlink.com 1.10,2013-02-12 01:28:00,
2013-02-11 18:43:00,26.6,16.0,30.08,WSW,257,2.0,-999.0,64,-99.99,,,0.02,weatherlink.com 1.10,2013-02-12 01:43:00,
2013-02-11 18:57:00,26.6,16.0,30.09,WSW,257,0.0,-999.0,64,-99.99,,,0.02,weatherlink.com 1.10,2013-02-12 01:57:00,
2013-02-11 19:12:00,25.8,15.0,30.09,WSW,257,0.0,-999.0,65,-99.99,,,0.02,weatherlink.com 1.10,2013-02-12 02:12:00,
2013-02-11 19:27:00,24.8,15.0,30.10,WSW,257,0.0,-999.0,67,-99.99,,,0.02,weatherlink.com 1.10,2013-02-12 02:27:00,
2013-02-11 19:42:00,23.8,15.0,30.12,WSW,257,0.0,-999.0,69,-99.99,,,0.02,weatherlink.com 1.10,2013-02-12 02:42:00,
2013-02-11 19:57:00,22.4,15.0,30.12,WSW,257,0.0,-999.0,72,-99.99,,,0.02,weatherlink.com 1.10,2013-02-12 02:57:00,
2013-02-11 20:12:00,22.2,14.0,30.13,WSW,257,1.0,-999.0,72,-99.99,,,0.02,weatherlink.com 1.10,2013-02-12 03:12:00,
2013-02-11 20:27:00,21.6,15.0,30.10,WSW,257,0.0,-999.0,74,-99.99,,,0.02,weatherlink.com 1.10,2013-02-12 03:27:00,
2013-02-11 20:42:00,20.5,14.0,30.10,WSW,257,0.0,-999.0,76,-99.99,,,0.02,weatherlink.com 1.10,2013-02-12 03:42:00,
2013-02-11 20:58:00,19.9,14.0,30.10,WSW,257,0.0,-999.0,76,-99.99,,,0.02,weatherlink.com 1.10,2013-02-12 03:58:00,
2013-02-11 21:12:00,18.6,13.0,30.12,WSW,257,3.0,-999.0,78,-99.99,,,0.02,weatherlink.com 1.10,2013-02-12 04:12:00,
2013-02-11 21:27:00,18.1,13.0,30.11,WSW,257,0.0,-999.0,79,-99.99,,,0.02,weatherlink.com 1.10,2013-02-12 04:27:00,
2013-02-11 21:42:00,17.2,12.0,30.11,WSW,257,0.0,-999.0,79,-99.99,,,0.02,weatherlink.com 1.10,2013-02-12 04:42:00,
2013-02-11 21:57:00,16.9,12.0,30.11,WSW,257,0.0,-999.0,80,-99.99,,,0.02,weatherlink.com 1.10,2013-02-12 04:57:00,
2013-02-11 22:12:00,16.2,11.0,30.11,WSW,257,0.0,-999.0,80,-99.99,,,0.02,weatherlink.com 1.10,2013-02-12 05:12:00,
2013-02-11 22:27:00,16.1,11.0,30.11,WSW,257,0.0,-999.0,81,-99.99,,,0.02,weatherlink.com 1.10,2013-02-12 05:27:00,
2013-02-11 22:42:00,15.9,11.0,30.11,WSW,257,0.0,-999.0,80,-99.99,,,0.02,weatherlink.com 1.10,2013-02-12 05:42:00,
2013-02-11 22:57:00,15.9,11.0,30.11,WSW,257,0.0,-999.0,81,-99.99,,,0.02,weatherlink.com 1.10,2013-02-12 05:57:00,
2013-02-11 23:13:00,16.4,12.0,30.11,WSW,257,3.0,-999.0,82,-99.99,,,0.02,weatherlink.com 1.10,2013-02-12 06:13:00,
2013-02-11 23:27:00,17.0,12.0,30.07,WSW,257,0.0,-999.0,80,-99.99,,,0.02,weatherlink.com 1.10,2013-02-12 06:27:00,
2013-02-11 23:42:00,16.1,11.0,30.07,WSW,257,0.0,-999.0,79,-99.99,,,0.02,weatherlink.com 1.10,2013-02-12 06:42:00,
2013-02-11 23:57:00,15.6,10.0,30.09,WSW,257,0.0,-999.0,79,-99.99,,,0.02,weatherlink.com 1.10,2013-02-12 06:57:00,